Location: Augirein
(42.9320°N, 0.9181°E)
Time: 17:15:46
(UTC+00:00)

Cosmos 2298 Rocket - Pass Details

Date: 20 June 2021
Orbit: 775 x 784 km, 74.0° (Epoch: 03 August)

Event Time Altitude Azimuth Distance (km) Brightness Sun altitude
Rises 02:27:04 0° 337° (NNW) 3,277 7.7 -15.3°
Reaches altitude 10° 02:29:28 10° 336° (NNW) 2,346 6.9 -15.0°
Maximum altitude 02:34:47 73° 253° (WSW) 820 4.0 -14.5°
Drops below altitude 10° 02:40:04 10° 169° (S) 2,333 6.1 -13.9°
Enters shadow 02:40:55 - 168° (SSE) 2,661 6.4 -13.8°
